Location: Newark
(12.1500°S, 17.6667°E)
Time: 15:43:22
(UTC+00:00)

N. Korean satellite - Visible Passes

Search period start: 23 October 2019 00:00
Search period end: 02 November 2019 00:00
Orbit: 455 x 508 km, 97.2° (Epoch: 22 October)

Date Brightness Start Highest point End Pass type
(mag) Time Alt. Az. Time Alt. Az. Time Alt. Az.
23 Oct 9.0 03:47:45 10° NE 03:51:01 30° ESE 03:54:20 10° SSE visible
23 Oct 9.6 17:02:43 10° SSW 17:05:27 22° WSW 17:08:09 10° NW visible
24 Oct 10.4 03:24:13 10° ENE 03:25:52 13° ESE 03:27:31 10° SE visible
26 Oct 10.4 17:21:34 10° SW 17:22:46 11° WSW 17:23:59 10° W visible
27 Oct 9.6 03:40:15 10° NE 03:43:13 23° ESE 03:46:12 10° SSE visible
30 Oct 8.2 03:57:02 10° NNE 04:00:34 43° ESE 04:04:07 10° S visible
30 Oct 10.0 17:12:49 10° SW 17:14:53 15° WSW 17:16:56 10° WNW visible
31 Oct 10.0 03:32:50 10° ENE 03:35:22 18° ESE 03:37:54 10° SSE visible
